Weather History for Statesville, NC

Change the Weather History Date:

Tuesday, March 26, 2013

  Actual Average (KHKY) Record (KHKY)
Temperature  
Mean Temperature 36 °F -  
Max Temperature 46 °F 62 °F 81 °F (1967)
Min Temperature 27 °F 37 °F 19 °F (1955)
Degree Days  
Heating Degree Days 28    
Moisture  
Dew Point 23 °F    
Average Humidity 57    
Maximum Humidity 85    
Minimum Humidity 39    
Precipitation  
Precipitation 0.00 in - - ()
Sea Level Pressure  
Sea Level Pressure 29.98 in    
Wind  
Wind Speed 7 mph (West)    
Max Wind Speed 14 mph    
Max Gust Speed 21 mph    
Visibility 10 miles    
Events      
Averages and records for this station are not official NWS values.
T = Trace of Precipitation, MM = Missing Value Source: NWS Daily Summary

Daily Weather History Graph

Daily Weather History Graph

Search for Another Location

Airport:

Trip Planner

Search our weather history database for the weather conditions in past years. The results will help you decide how hot, cold, wet, or windy it might be!

Date:

Astronomy

Mar. 26, 2013 Rise Set
Actual Time 7:18 AM EDT 7:40 PM EDT
Civil Twilight 6:52 AM EDT 8:06 PM EDT
Nautical Twilight 6:22 AM EDT 8:36 PM EDT
Astronomical Twilight 5:52 AM EDT 9:07 PM EDT
Moon 7:15 PM EDT 6:33 AM EDT
Length of Visible Light 13h 13m
Length of Day
12h 22m
Waxing Gibbous, 99% of the Moon is Illuminated
Mar 26
Waxing Gibbous
Mar 27
Full
Apr 3
Last Quarter
Apr 10
New
Apr 18
First Quarter

Hourly Weather History & Observations

Time (EDT) Temp. Windchill Dew Point Humidity Pressure Visibility Wind Dir Wind Speed Gust Speed Precip Events Conditions
12:15 AM 34.7 °F 28.1 °F 23.5 °F 64% 29.86 in 10.0 mi WSW 8.1 mph 17.3 mph N/A   Mostly Cloudy
12:35 AM 34.9 °F 30.8 °F 23.4 °F 63% 29.86 in 10.0 mi WSW 4.6 mph - N/A   Overcast
12:55 AM 35.1 °F 28.6 °F 23.0 °F 61% 29.86 in 10.0 mi WSW 8.1 mph - N/A   Overcast
1:15 AM 35.1 °F 25.9 °F 22.8 °F 61% 29.85 in 10.0 mi West 13.8 mph 18.4 mph N/A   Scattered Clouds
1:35 AM 34.7 °F 26.9 °F 22.6 °F 61% 29.86 in 10.0 mi West 10.4 mph - N/A   Clear
1:55 AM 34.7 °F 30.6 °F 22.1 °F 60% 29.86 in 10.0 mi WSW 4.6 mph - N/A   Clear
2:15 AM 33.8 °F 27.0 °F 22.6 °F 64% 29.87 in 10.0 mi WSW 8.1 mph - N/A   Clear
2:35 AM 33.1 °F 28.7 °F 22.6 °F 66% 29.87 in 10.0 mi SW 4.6 mph - N/A   Scattered Clouds
2:55 AM 33.1 °F 27.7 °F 23.2 °F 67% 29.87 in 10.0 mi WSW 5.8 mph - N/A   Overcast
3:15 AM 32.9 °F 27.5 °F 23.7 °F 69% 29.87 in 10.0 mi SW 5.8 mph - N/A   Overcast
3:35 AM 32.9 °F 27.5 °F 23.7 °F 69% 29.88 in 10.0 mi WSW 5.8 mph - N/A   Overcast
3:55 AM 32.9 °F 29.8 °F 23.5 °F 68% 29.87 in 10.0 mi SW 3.5 mph - N/A   Overcast
4:15 AM 32.7 °F 28.3 °F 23.5 °F 69% 29.87 in 10.0 mi SW 4.6 mph - N/A   Overcast
4:35 AM 32.5 °F 28.1 °F 23.7 °F 70% 29.87 in 10.0 mi SW 4.6 mph - N/A   Overcast
4:55 AM 32.9 °F 28.5 °F 23.5 °F 68% 29.88 in 10.0 mi SW 4.6 mph - N/A   Overcast
5:15 AM 32.9 °F 28.5 °F 23.7 °F 69% 29.87 in 10.0 mi WSW 4.6 mph - N/A   Overcast
5:35 AM 32.7 °F 29.6 °F 23.4 °F 68% 29.88 in 10.0 mi SW 3.5 mph - N/A   Mostly Cloudy
5:55 AM 32.0 °F 28.7 °F 23.0 °F 69% 29.88 in 10.0 mi WSW 3.5 mph - N/A   Scattered Clouds
6:15 AM 30.4 °F - 23.5 °F 76% 29.89 in 10.0 mi Calm Calm - N/A   Clear
6:35 AM 29.5 °F 25.9 °F 23.4 °F 78% 29.89 in 10.0 mi WSW 3.5 mph - N/A   Clear
6:55 AM 30.0 °F - 23.0 °F 75% 29.90 in 10.0 mi Calm Calm - N/A   Clear
7:15 AM 29.1 °F 25.4 °F 22.8 °F 77% 29.90 in 10.0 mi WSW 3.5 mph - N/A   Clear
7:35 AM 27.5 °F 23.6 °F 23.5 °F 85% 29.90 in 10.0 mi WSW 3.5 mph - N/A   Clear
7:55 AM 30.2 °F 26.7 °F 23.2 °F 75% 29.91 in 10.0 mi SW 3.5 mph - N/A   Clear
8:15 AM 31.5 °F 26.8 °F 23.4 °F 72% 29.92 in 10.0 mi WSW 4.6 mph - N/A   Clear
8:35 AM 32.5 °F 29.3 °F 24.1 °F 71% 29.92 in 10.0 mi West 3.5 mph - N/A   Clear
8:55 AM 34.7 °F 29.6 °F 24.1 °F 65% 29.93 in 10.0 mi West 5.8 mph - N/A   Clear
9:15 AM 36.1 °F 32.3 °F 23.7 °F 61% 29.94 in 10.0 mi West 4.6 mph - N/A   Clear
9:35 AM 37.9 °F 32.1 °F 23.9 °F 57% 29.95 in 10.0 mi West 8.1 mph - N/A   Scattered Clouds
9:55 AM 39.2 °F 35.9 °F 24.3 °F 55% 29.95 in 10.0 mi WNW 4.6 mph - N/A   Clear
10:15 AM 41.0 °F 36.4 °F 23.5 °F 50% 29.95 in 10.0 mi NNW 6.9 mph - N/A   Mostly Cloudy
10:35 AM 40.1 °F 35.3 °F 22.6 °F 50% 29.96 in 10.0 mi NW 6.9 mph - N/A   Overcast
10:55 AM 41.0 °F 33.9 °F 22.5 °F 48% 29.96 in 10.0 mi NNW 12.7 mph - N/A   Mostly Cloudy
11:15 AM 41.7 °F 36.1 °F 21.9 °F 45% 29.97 in 10.0 mi NNW 9.2 mph 18.4 mph N/A   Mostly Cloudy
11:35 AM 42.1 °F 36.1 °F 23.4 °F 48% 29.98 in 10.0 mi NW 10.4 mph - N/A   Overcast
11:55 AM 42.1 °F 35.7 °F 22.3 °F 45% 29.98 in 10.0 mi NNW 11.5 mph 16.1 mph N/A   Overcast
12:15 PM 41.9 °F 35.4 °F 22.5 °F 46% 29.99 in 10.0 mi NW 11.5 mph 18.4 mph N/A   Overcast
12:35 PM 42.1 °F 35.2 °F 22.3 °F 45% 29.99 in 10.0 mi NNW 12.7 mph 19.6 mph N/A   Overcast
12:55 PM 42.3 °F 35.9 °F 22.3 °F 45% 29.99 in 10.0 mi NNW 11.5 mph 19.6 mph N/A   Overcast
1:15 PM 42.3 °F 36.3 °F 22.1 °F 45% 29.99 in 10.0 mi NW 10.4 mph - N/A   Overcast
1:35 PM 43.5 °F 37.5 °F 22.3 °F 43% 29.99 in 10.0 mi NNW 11.5 mph 16.1 mph N/A   Mostly Cloudy
1:55 PM 43.9 °F 38.3 °F 22.5 °F 43% 29.99 in 10.0 mi NW 10.4 mph - N/A   Mostly Cloudy
2:15 PM 43.7 °F 36.9 °F 22.6 °F 43% 29.99 in 10.0 mi NW 13.8 mph 18.4 mph N/A   Mostly Cloudy
2:35 PM 44.6 °F 38.1 °F 21.2 °F 39% 29.99 in 10.0 mi NNW 13.8 mph 20.7 mph N/A   Mostly Cloudy
2:55 PM 44.2 °F 38.4 °F 22.6 °F 42% 29.99 in 10.0 mi WNW 11.5 mph 16.1 mph N/A   Mostly Cloudy
3:15 PM 43.7 °F 38.6 °F 23.0 °F 44% 29.99 in 10.0 mi NW 9.2 mph - N/A   Mostly Cloudy
3:35 PM 44.1 °F 37.7 °F 22.1 °F 42% 29.99 in 10.0 mi WNW 12.7 mph 16.1 mph N/A   Overcast
3:55 PM 46.2 °F 40.1 °F 24.4 °F 42% 29.99 in 10.0 mi West 13.8 mph 17.3 mph N/A   Mostly Cloudy
4:15 PM 44.6 °F 40.7 °F 21.9 °F 41% 30.00 in 10.0 mi WNW 6.9 mph - N/A   Overcast
4:35 PM 43.9 °F 38.3 °F 23.5 °F 45% 30.01 in 10.0 mi NW 10.4 mph 16.1 mph N/A   Overcast
4:55 PM 44.2 °F 38.8 °F 22.8 °F 43% 30.01 in 10.0 mi WNW 10.4 mph - N/A   Overcast
5:15 PM 43.9 °F 37.9 °F 22.6 °F 43% 30.02 in 10.0 mi West 11.5 mph 17.3 mph N/A   Overcast
5:35 PM 43.2 °F 37.4 °F 23.0 °F 45% 30.02 in 10.0 mi WNW 10.4 mph - N/A   Overcast
5:55 PM 43.2 °F 37.4 °F 22.8 °F 45% 30.03 in 10.0 mi NW 10.4 mph - N/A   Overcast
6:15 PM 42.8 °F 36.6 °F 21.9 °F 44% 30.04 in 10.0 mi NW 11.5 mph - N/A   Overcast
6:35 PM 42.4 °F 36.5 °F 21.9 °F 44% 30.05 in 10.0 mi NW 10.4 mph - N/A   Overcast
6:55 PM 42.1 °F 37.7 °F 21.7 °F 44% 30.06 in 10.0 mi NNW 6.9 mph - N/A   Overcast
7:15 PM 41.5 °F 35.4 °F 22.6 °F 47% 30.07 in 10.0 mi WNW 10.4 mph - N/A   Overcast
7:35 PM 41.2 °F 36.6 °F 22.1 °F 47% 30.08 in 10.0 mi NW 6.9 mph - N/A   Overcast
7:55 PM 40.8 °F 36.2 °F 24.3 °F 52% 30.09 in 10.0 mi West 6.9 mph - N/A   Overcast
8:15 PM 40.1 °F 34.7 °F 25.2 °F 55% 30.10 in 10.0 mi West 8.1 mph - N/A   Overcast
8:35 PM 39.2 °F 33.0 °F 25.0 °F 57% 30.10 in 10.0 mi West 9.2 mph - N/A   Mostly Cloudy
8:55 PM 37.4 °F 32.1 °F 24.8 °F 60% 30.11 in 10.0 mi West 6.9 mph - N/A   Scattered Clouds
9:15 PM 37.4 °F 31.4 °F 24.6 °F 60% 30.12 in 10.0 mi West 8.1 mph - N/A   Clear
9:35 PM 36.7 °F 31.2 °F 24.3 °F 61% 30.13 in 10.0 mi West 6.9 mph - N/A   Clear
9:55 PM 36.5 °F 31.0 °F 23.9 °F 60% 30.14 in 10.0 mi West 6.9 mph - N/A   Clear
10:15 PM 35.8 °F 29.4 °F 23.9 °F 62% 30.14 in 10.0 mi West 8.1 mph - N/A   Clear
10:35 PM 35.6 °F 29.9 °F 23.2 °F 61% 30.15 in 10.0 mi West 6.9 mph - N/A   Clear
10:55 PM 34.3 °F 28.4 °F 23.2 °F 64% 30.15 in 10.0 mi West 6.9 mph - N/A   Clear
11:15 PM 34.7 °F 28.8 °F 23.0 °F 62% 30.15 in 10.0 mi West 6.9 mph - N/A   Clear
11:35 PM 34.9 °F 27.7 °F 23.0 °F 62% 30.16 in 10.0 mi West 9.2 mph - N/A   Clear
11:55 PM 34.7 °F 28.1 °F 22.8 °F 62% 30.17 in 10.0 mi West 8.1 mph - N/A   Clear